Probability
2 2 1 0 0 0 0 0 0 0 0 0 0 0 0 0 0 0 0 0 0 0 0 0 0 0 0 0 0 0 0 0 0 0 0 0 0 0 0 0 0 0 0
1 1 0 0 0 0 0 0 0 0 0 0 0 0 0 0 0 0 0 0 0 0 0 0 0 0 0 0 0 0 0 0 0 0 0 0 0 0 0 0 0 0 0
0 0 0 0 0 0 0 0 0 0 0 0 0 0 0 0 0 0 0 0 0 0 0 0 0 0 0 0 0 0 0 0 0 0 0 0 0 0 0 0 0 0 0
0 0 0 0 0 0 0 0 0 0 0 0 0 0 0 0 0 0 0 0 0 0 0 0 0 0 0 0 0 0 0 0 0 0 0 0 0 0 0 0 0 0 0
0 0 0 0 0 0 0 0 0 0 0 0 0 0 0 0 0 0 0 0 0 0 0 0 0 0 0 0 0 0 0 0 0 0 0 0 0 0 0 0 0 0 0
0 0 0 0 0 0 0 0 0 0 0 0 0 0 0 0 0 0 0 0 0 0 0 0 0 0 0 0 0 0 0 0 0 0 0 0 0 0 0 0 0 0 0
0 0 0 0 0 0 0 0 0 0 0 0 0 0 0 0 0 0 0 0 0 0 0 0 0 0 0 0 0 0 0 0 0 0 0 0 0 0 0 0 0 0 0
0 0 0 0 0 0 0 0 0 0 0 0 0 0 0 0 0 0 0 0 0 0 0 0 0 0 0 0 0 0 0 0 0 0 0 0 0 0 0 0 0 0 0
0 0 0 0 0 0 0 0 0 0 0 0 0 0 0 0 0 0 0 0 0 0 0 0 0 0 0 0 0 0 0 0 0 0 0 0 0 0 0 0 0 0 0
0 0 0 0 0 0 0 0 0 0 0 0 0 0 0 0 0 0 0 0 0 0 0 0 0 0 0 0 0 0 0 0 0 0 0 0 0 0 0 0 0 0 0
0 0 0 0 0 0 0 0 0 0 0 0 0 0 0 0 0 0 0 0 0 0 0 0 0 0 0 0 0 0 0 0 0 0 0 0 0 0 0 0 0 0 0
0 0 0 0 0 0 0 0 0 0 0 0 0 0 0 0 0 0 0 0 0 0 0 0 0 0 0 0 0 0 0 0 0 0 0 0 0 0 0 0 0 0 0
0 0 0 0 0 0 0 0 0 0 0 0 0 0 0 0 0 0 0 0 0 0 0 0 0 0 0 0 0 0 0 0 0 0 0 0 0 0 0 0 0 0 0
0 0 0 0 0 0 0 0 0 0 0 0 0 0 0 0 0 0 0 0 0 0 0 0 0 0 0 0 0 0 0 0 0 0 0 0 0 0 0 0 0 0 0
0 0 0 0 0 0 0 0 0 0 0 0 0 0 0 0 0 0 0 0 0 0 0 0 0 0 0 0 0 0 0 0 0 0 0 0 0 0 0 0 0 0 0
0 0 0 0 0 0 0 0 0 0 0 0 0 0 0 0 0 0 0 0 0 0 0 0 0 0 0 0 0 0 0 0 0 0 0 0 0 0 0 0 0 0 0
0 0 0 0 0 0 0 0 0 0 0 0 0 0 0 0 0 0 0 0 0 0 0 0 0 0 0 0 0 0 0 0 0 0 0 0 0 0 0 0 0 0 0
0 0 0 0 0 0 0 0 0 0 0 0 0 0 0 0 0 0 0 0 0 0 0 0 0 0 0 0 0 0 0 0 0 0 0 0 0 0 0 0 0 0 0
0 0 0 0 0 0 0 0 0 0 0 0 0 0 0 0 0 0 0 0 0 0 0 0 0 0 0 0 0 0 0 0 0 0 0 0 0 0 0 0 0 0 0
0 0 0 0 0 0 0 0 0 0 0 0 0 0 0 0 0 0 0 0 0 0 0 0 0 0 0 0 0 0 0 0 0 0 0 0 0 0 0 0 0 0 0
0 0 0 0 0 0 0 0 0 0 0 0 0 0 0 0 0 0 0 0 0 0 0 0 0 0 0 0 0 0 0 0 0 0 0 0 0 0 0 0 0 0 0
0 0 0 0 0 0 0 0 0 0 0 0 0 0 0 0 0 0 0 0 0 0 0 0 0 0 0 0 0 0 0 0 0 0 0 0 0 0 0 0 0 0 0
0 0 0 0 0 0 0 0 0 0 0 0 0 0 0 0 0 0 0 0 0 0 0 0 0 0 0 0 0 0 0 0 0 0 0 0 0 0 0 0 0 0 0
0 0 0 0 0 0 0 0 0 0 0 0 0 0 0 0 0 0 0 0 0 0 0 0 0 0 0 0 0 0 0 0 0 0 0 0 0 0 0 0 0 0 0
0 0 0 0 0 0 0 0 0 0 0 0 0 0 0 0 0 0 0 0 0 0 0 0 0 0 0 0 0 0 0 0 0 0 0 0 0 0 0 0 0 0 0
0 0 0 0 0 0 0 0 0 0 0 0 0 0 0 0 0 0 0 0 0 0 0 0 0 0 0 0 0 0 0 0 0 0 0 0 0 0 0 0 0 0 0
Wind_Speed
13 12 12 11 11 11 10 10 9 8 7 7 6 6 5 5 5 4 4 4 4 4 4 4 4 4 3 4 4 4 4 4 6 6 5 5 5 5 6 6 7 7 7
12 12 12 11 11 11 11 10 9 8 7 7 6 6 6 6 5 5 5 5 4 4 5 5 5 5 5 4 4 5 5 5 5 7 6 6 6 6 7 7 8 9 6
12 12 12 12 11 11 10 9 8 8 7 7 6 6 6 6 6 6 5 5 5 5 5 5 5 5 5 4 5 5 5 6 5 6 7 5 5 6 7 8 8 6 9
12 12 11 11 10 9 9 8 7 7 7 6 6 5 6 7 8 9 8 7 6 6 5 5 5 4 4 4 5 5 5 6 6 6 6 6 6 6 5 5 6 5 6
10 11 10 9 8 8 7 7 6 6 6 5 4 4 4 6 8 8 8 9 8 8 6 6 6 6 6 4 5 5 6 6 7 7 7 7 6 5 5 5 7 6 6
9 9 8 7 7 6 6 6 5 5 5 4 5 5 6 6 7 9 8 8 8 8 7 6 7 6 4 5 9 10 10 9 8 8 8 8 8 7 6 6 6 7 5
8 7 6 6 6 5 5 5 4 4 3 3 3 4 5 6 5 7 10 8 9 7 7 6 7 6 5 5 7 10 11 13 13 10 10 10 9 7 6 7 7 7 7
6 5 5 5 5 4 4 4 3 2 2 2 2 3 3 4 3 6 12 9 7 6 6 6 5 4 5 6 9 9 9 8 8 7 7 8 8 6 5 6 7 7 7
5 5 5 5 4 4 4 3 2 2 2 1 2 3 3 3 1 5 9 8 6 7 7 6 5 4 5 8 9 9 10 8 9 11 10 10 11 11 8 5 6 6 6
5 5 4 4 3 3 3 2 2 2 2 2 2 2 2 2 3 3 8 7 7 8 7 5 4 5 7 9 8 9 10 9 10 11 9 8 7 6 7 5 4 5 5
5 4 4 3 2 2 2 2 2 2 2 2 2 2 2 3 3 0 5 6 7 8 8 6 4 7 10 11 9 8 9 10 10 9 7 6 4 3 3 3 3 3 4
4 3 3 2 3 3 2 2 3 3 3 2 2 2 2 2 3 2 5 7 8 8 7 6 7 11 13 14 10 10 13 11 7 6 5 4 3 4 3 4 4 3 3
2 2 1 1 2 2 3 3 3 3 3 4 4 4 4 4 3 5 7 9 10 7 6 10 13 14 13 9 9 12 10 6 5 4 4 3 3 3 3 3 4 3 3
1 1 1 0 1 1 2 3 4 5 6 6 6 5 5 4 6 7 8 8 9 8 8 10 12 11 9 8 8 6 3 4 4 4 4 3 3 3 3 3 3 3 3
1 1 1 0 0 1 4 5 5 6 5 5 6 6 6 6 6 8 6 7 7 8 9 6 5 6 6 5 5 5 4 4 3 3 3 3 3 3 3 3 3 3 4
2 2 2 2 1 1 4 5 8 6 6 5 4 4 4 5 8 9 10 11 11 11 7 5 6 6 7 7 6 6 5 4 4 3 3 3 3 3 3 3 3 3 3
2 3 3 3 2 3 2 3 4 4 2 1 1 3 5 7 8 10 11 12 10 8 4 5 6 6 7 7 6 6 5 5 4 3 3 2 2 2 2 2 3 3 3
2 2 2 2 2 2 2 3 3 3 2 1 2 2 5 7 8 9 10 8 5 5 5 5 6 6 7 6 6 6 5 5 4 4 3 3 2 2 2 2 2 3 3
2 2 1 2 1 3 3 3 4 5 4 4 2 2 5 6 5 6 7 5 5 5 6 6 6 6 6 6 6 5 5 4 4 4 3 3 2 2 2 2 1 2 2
2 2 2 2 2 4 4 4 5 4 4 4 4 5 5 5 4 5 5 5 5 5 5 6 6 7 6 6 5 5 5 5 5 5 4 3 3 3 3 3 3 2 2
3 4 2 1 4 5 4 5 4 4 4 3 3 4 4 3 4 5 4 4 5 5 6 6 6 7 6 6 5 6 6 6 5 5 5 5 4 4 3 3 3 3 2
2 3 3 5 5 5 4 3 4 4 4 4 3 2 3 3 3 4 4 4 5 4 5 5 6 6 5 6 6 5 6 7 7 7 6 6 4 4 4 4 4 3 4
1 3 4 5 5 4 2 4 4 4 4 4 4 3 3 3 3 4 4 4 4 4 4 4 5 6 6 6 5 6 7 7 8 8 7 6 5 4 4 4 5 4 5
3 4 5 5 4 4 4 4 4 4 4 4 3 3 2 2 3 4 4 4 4 4 4 4 5 8 10 8 7 8 7 7 8 7 10 7 5 4 4 4 4 5 4
4 4 4 5 5 5 5 5 5 4 4 4 3 3 2 3 3 3 4 4 4 5 6 6 6 8 12 13 12 11 10 10 8 8 8 6 5 5 5 6 5 5 6
5 4 4 5 5 4 5 5 5 4 4 4 3 2 2 3 3 4 4 4 4 5 6 6 10 12 14 12 13 13 12 12 12 11 7 5 5 6 6 5 7 6 7
Wind_Direction
76 78 80 81 81 82 83 83 84 85 87 88 88 84 79 71 58 44 33 35 21 11 354 357 352 332 325 333 324 315 314 320 312 310 315 320 327 317 309 300 294 284 279
77 78 78 79 79 79 79 80 80 79 77 78 76 73 67 64 51 38 25 20 6 358 351 343 336 334 343 327 324 321 318 313 303 306 308 307 307 303 293 291 296 294 292
78 77 74 74 74 75 75 73 74 73 71 69 67 64 58 54 49 32 16 2 353 346 341 336 330 324 319 325 323 312 309 309 308 300 299 297 296 295 298 295 293 291 294
76 75 73 72 72 72 72 70 69 70 70 64 60 57 53 47 42 25 7 349 343 335 327 318 310 313 317 329 314 309 315 318 308 299 295 295 292 290 292 298 300 294 296
80 79 78 78 78 77 75 72 68 66 70 63 58 56 58 64 42 26 358 345 338 326 319 312 309 306 295 283 293 310 311 304 302 298 297 297 295 302 305 304 301 300 292
82 82 82 82 81 81 81 75 70 63 57 50 45 45 46 61 55 30 2 338 322 314 314 316 310 300 306 278 276 280 277 281 289 293 294 294 297 302 307 307 303 305 300
81 83 85 83 78 73 74 75 69 64 59 50 41 52 78 82 51 14 352 323 306 306 310 313 318 336 359 352 326 303 286 275 264 265 278 284 294 302 307 305 304 304 299
93 91 86 83 80 78 72 64 57 52 49 43 38 47 86 94 55 2 341 320 313 318 318 317 326 345 28 356 325 313 306 305 299 287 274 282 293 301 302 296 293 295 292
90 81 73 69 68 64 63 60 51 30 23 13 38 32 67 113 92 2 347 324 327 332 327 337 345 3 19 348 325 315 314 316 319 321 306 294 291 287 281 291 296 302 306
89 81 74 65 56 48 48 34 19 351 352 358 27 18 36 90 127 10 345 335 340 335 330 343 9 359 339 332 323 314 312 318 323 318 314 309 297 284 272 260 278 296 304
86 79 69 55 56 62 37 13 348 350 3 3 0 3 43 67 134 331 339 341 341 330 328 333 337 339 328 319 311 294 297 309 308 304 310 313 319 318 308 290 274 276 295
92 85 74 35 11 45 23 18 10 2 353 359 359 8 38 66 57 14 332 327 322 320 321 329 331 326 319 312 306 297 304 307 298 304 312 317 326 331 330 324 311 293 273
97 97 87 41 35 26 11 28 29 23 7 7 11 11 12 26 32 2 341 330 328 323 327 328 323 318 316 310 308 307 306 301 307 317 323 329 330 328 329 331 331 325 314
77 100 198 120 17 68 42 34 43 29 17 8 12 7 5 16 18 1 346 339 341 341 340 326 320 314 312 306 307 310 303 304 309 311 316 323 334 346 350 346 343 342 343
22 316 308 37 37 99 86 51 54 64 50 22 13 2 5 3 2 340 330 331 331 327 324 314 324 333 339 341 337 332 333 333 333 338 341 346 357 2 360 357 357 356 358
2 354 346 360 27 78 119 108 69 97 106 78 46 7 12 14 335 334 333 328 323 323 326 332 339 341 342 341 338 337 339 342 341 346 349 354 4 7 8 12 15 10 3
11 0 343 359 23 47 72 111 126 125 140 154 325 332 334 333 333 335 336 332 326 330 338 341 343 339 337 335 332 333 334 336 336 345 351 358 3 15 20 20 16 9 2
352 55 344 359 34 41 48 61 76 96 110 125 202 282 327 336 338 340 339 339 349 357 350 343 339 332 330 329 330 332 335 341 346 352 357 359 0 9 21 22 22 8 357
348 43 12 357 42 57 50 63 66 64 56 51 48 21 348 340 341 349 346 358 354 350 344 338 331 327 327 329 331 334 337 342 351 353 355 356 352 3 15 16 26 359 346
100 74 347 2 59 68 58 59 65 64 58 48 37 22 0 358 3 359 1 356 349 342 337 333 329 326 328 331 335 342 349 356 1 358 352 352 356 9 17 12 8 7 4
130 145 190 31 60 65 61 62 68 62 60 58 53 37 3 357 356 350 347 343 338 333 330 329 325 326 332 337 342 350 360 2 4 358 354 353 2 7 6 3 1 5 1
7 105 98 76 74 63 59 71 74 72 68 61 57 53 9 3 356 349 342 334 326 318 317 318 322 328 337 340 344 357 8 8 359 355 353 350 357 2 2 1 3 7 7
329 84 93 91 98 114 92 80 75 74 77 72 56 42 29 11 356 346 336 327 320 318 319 322 330 344 353 349 0 23 16 0 343 338 342 342 347 355 356 357 8 15 15
60 72 87 90 89 91 81 80 77 75 79 79 70 54 32 6 351 340 332 326 327 327 334 345 356 4 13 15 13 21 13 348 331 328 330 331 343 354 356 356 5 12 14
63 61 76 84 79 82 83 79 74 70 71 77 75 58 35 10 358 352 350 349 350 355 8 17 22 18 16 23 19 8 350 340 338 333 321 325 350 4 1 1 8 12 17
64 58 75 87 81 78 83 86 81 75 70 70 69 62 40 25 17 6 6 5 6 11 17 23 35 34 19 12 7 0 351 347 345 340 329 334 4 20 9 10 17 18 22